This demonstration page uses our WeatherBlox Daily Observations layout. Learn more.

Left ArrowRight Arrow

Hourly Observations for January 25, 2016

Temp ( °F °C ) Dew Point ( °F °C ) Humidity (%) Winds ( mph kmh ) Pressure ( in mb ) Visibility ( mi km ) Precip ( " mm )
12:06 am 00:06 Cloudy with Mist and Fog 31 -0.6 28 -2.2 89 89 N 10 17 29.77 1008 3 5 0.00 0.00
12:16 am 00:16 Cloudy with Mist and Fog 30 -1 28 -2 93 93 NNW 12 19 29.77 1008 3 4 0.00 0.00
12:53 am 00:53 Cloudy with Mist and Fog 30 -1.1 28 -2.2 92 92 NNW 12 19 29.69 1005 2 3 0.00 0.00
1:49 am 01:49 Cloudy with Mist and Fog 28 -2 27 -3 93 93 N 17 28 29.74 1007 2 3 0.00 0.00
1:53 am 01:53 Cloudy with Mist and Fog 29 -1.7 27 -2.8 92 92 N 17 28 29.68 1005 2 3 0.00 0.00
2:53 am 02:53 Cloudy with Mist and Fog 28 -2.2 26 -3.3 92 92 N 15 24 29.70 1006 3 4 0.00 0.00
3:24 am 03:24 Cloudy with Mist and Fog 28 -2 27 -3 93 93 N 14 22 29.77 1008 2 3 0.00 0.00
3:31 am 03:31 Cloudy with Mist and Fog 29 -1.7 27 -2.8 92 92 NNE 16 26 29.77 1008 2 3 0.00 0.00
3:53 am 03:53 Cloudy with Mist and Fog 29 -1.7 27 -2.8 92 92 N 16 26 29.71 1006 3 5 0.00 0.00
4:08 am 04:08 Cloudy with Mist and Fog 28 -2 27 -3 93 93 N 13 20 29.77 1008 3 4 0.00 0.00
4:48 am 04:48 Cloudy with Mist and Fog 28 -2 27 -3 93 93 N 17 28 29.77 1008 2 3 0.00 0.00
4:53 am 04:53 Cloudy with Mist and Fog 29 -1.7 27 -2.8 92 92 N 17 28 29.71 1006 2 3 0.00 0.00
5:16 am 05:16 Cloudy with Mist and Fog 28 -2 27 -3 93 93 N 20 31 29.80 1009 2 3 0.00 0.00
5:51 am 05:51 Cloudy with Mist and Fog 28 -2 27 -3 93 93 N 18 30 29.80 1009 2 3 0.00 0.00
5:53 am 05:53 Cloudy with Mist and Fog 29 -1.7 26 -3.3 89 89 N 18 30 29.76 1008 2 3 0.00 0.00
6:15 am 06:15 Cloudy with Mist and Fog 28 -2.2 26 -3.3 92 92 N 17 28 29.80 1009 3 4 0.00 0.00
6:35 am 06:35 Cloudy with Mist and Fog 28 -2.2 26 -3.3 92 92 N 17 28 29.80 1009 4 6 0.00 0.00
6:53 am 06:53 Cloudy with Mist and Fog 28 -2.2 25 -3.9 88 88 N 17 28 29.78 1008 3 5 0.00 0.00
7:53 am 07:53 Cloudy with Mist and Fog 28 -2.2 25 -3.9 88 88 NNW 20 31 29.80 1009 4 6 0.00 0.00
8:53 am 08:53 Cloudy 28 -2.2 25 -3.9 88 88 N 18 30 29.81 1010 10 16 0.00 0.00
9:53 am 09:53 Cloudy 30 -1.1 27 -2.8 88 88 N 16 26 29.83 1010 10 16 0.00 0.03
10:37 am 10:37 Windy with Snow Likely 30 -1 27 -3 86 86 NNW 24 39 29.88 1012 2 3 0.00 0.00
10:53 am 10:53 Windy with Snow Likely 31 -0.6 27 -2.8 85 85 NNW 22 35 29.86 1011 1 2 0.00 0.03
11:00 am 11:00 Windy with Snow Likely 30 -1 27 -3 86 86 NNW 25 41 29.91 1013 2 2 0.00 0.00
11:04 am 11:04 Windy with Snow Likely 31 -0.6 27 -2.8 85 85 NNW 25 41 29.91 1013 2 3 0.00 0.03
11:17 am 11:17 Windy with Snow Likely 30 -1.1 26 -3.3 85 85 NNW 22 35 29.91 1013 3 5 0.00 0.03
11:25 am 11:25 Cloudy 31 -0.6 26 -3.3 82 82 NNW 22 35 29.91 1013 7 11 0.00 0.03
11:33 am 11:33 Cloudy 31 -0.6 25 -3.9 79 79 NNW 22 35 29.91 1013 10 16 0.00 0.03
11:41 am 11:41 Cloudy 31 -0.6 26 -3.3 82 82 NNW 23 37 29.91 1013 10 16 0.00 0.03
11:53 am 11:53 Cloudy 31 -0.6 25 -3.9 79 79 NNW 24 39 29.90 1012 10 16 0.00 0.03
12:25 pm 12:25 Windy with Snow Likely 30 -1.1 25 -3.9 82 82 NNW 22 35 29.94 1014 2 3 0.00 0.03
12:32 pm 12:32 Windy with Snow Likely 30 -1.1 26 -3.3 85 85 NNW 21 33 29.94 1014 2 2 0.00 0.03
12:37 pm 12:37 Windy with Snow Likely 30 -1.1 25 -3.9 82 82 NNW 23 37 29.94 1014 2 3 0.00 0.03
12:53 pm 12:53 Windy with Snow Likely 30 -1.1 25 -3.9 82 82 NNW 21 33 29.92 1013 4 6 0.00 0.03
1:03 pm 13:03 Windy with Snow Likely 30 -1 25 -4 80 80 NNW 24 39 29.94 1014 2 3 0.00 0.00
1:23 pm 13:23 Windy with Snow Likely 30 -1.1 26 -3.3 85 85 NW 24 39 29.97 1015 1 2 0.00 0.03
1:33 pm 13:33 Windy with Snow Likely 30 -1.1 26 -3.3 85 85 NNW 28 44 29.97 1015 1 2 0.00 0.03
1:53 pm 13:53 Cloudy with Light Snow 30 -1.1 26 -3.3 85 85 NW 17 28 29.94 1014 2 3 0.00 0.03
2:53 pm 14:53 Windy with Snow Likely 31 -0.6 27 -2.8 85 85 NNW 23 37 29.96 1015 2 2 0.00 0.03
2:58 pm 14:58 Windy with Snow Likely 30 -1 27 -3 86 86 NNW 20 31 30.00 1016 2 3 0.00 0.00
3:25 pm 15:25 Windy with Snow Likely 31 -0.6 26 -3.3 82 82 NNW 20 31 30.00 1016 4 6 0.00 0.03
3:33 pm 15:33 Cloudy with Light Snow 30 -1 27 -3 86 86 NNW 18 30 30.00 1016 5 8 0.00 0.00
3:53 pm 15:53 Cloudy 32 0 26 -3.3 79 79 NNW 21 33 29.99 1016 10 16 0.00 0.03
4:53 pm 16:53 Cloudy 31 -0.6 25 -3.9 79 79 NNW 18 30 30.02 1017 10 16 0.00 0.00
5:53 pm 17:53 Cloudy 31 -0.6 25 -3.9 79 79 NNW 18 30 30.06 1018 10 16 0.00 0.00
6:53 pm 18:53 Cloudy 30 -1.1 23 -5 75 75 NNW 21 33 30.09 1019 10 16 0.00 0.00
7:53 pm 19:53 Cloudy 30 -1.1 23 -5 75 75 NNW 21 33 30.12 1020 10 16 0.00 0.00
8:53 pm 20:53 Cloudy 30 -1.1 24 -4.4 79 79 NNW 16 26 30.13 1020 10 16 0.00 0.00
9:53 pm 21:53 Cloudy 30 -1.1 23 -5 75 75 NNW 14 22 30.16 1021 10 16 0.00 0.00
10:53 pm 22:53 Partly Cloudy 29 -1.7 22 -5.6 75 75 NNW 14 22 30.17 1022 10 16 0.00 0.00
11:53 pm 23:53 Clear 25 -3.9 20 -6.7 81 81 NW 9 15 30.19 1022 10 16 0.00 0.00

Powered by AerisWeather